GFSSE_con_mucape_231.txt.gz
CAPE
1580 1738 2090 1924 1791 1817 1797 1846 1901 1699 1826 1612 1730 1676 1622 1567 1544 1507 1682 1745 1698 1847 1831 1578 1264 1319 1304 1308 1119 920 1662 1563 1069 1109 1560 1867 1604 1649 1502 1694 1669 1007 1874
1281 1775 2113 2249 1713 1819 1834 1875 1932 1874 1845 1966 1400 1216 1312 1672 1625 1616 1687 1662 1605 1355 1575 1215 1083 1218 1120 1181 1238 1227 1082 1197 1609 1506 1269 1163 1521 1737 1650 1984 1867 1003 1609
1174 1517 1546 2449 1889 1854 1807 1574 1938 1733 1671 1360 1619 1718 1695 1658 1421 1364 1213 1189 1149 1175 1274 1423 1211 1278 1305 1264 1059 1013 1117 1191 1197 1349 1538 1506 1113 1640 1741 1435 1311 1639 1960
1067 1251 1403 2128 1983 1734 1823 1439 1686 1696 1719 1529 1864 1976 1605 1368 1434 1467 1472 1436 1323 1259 1205 1163 1137 1141 1185 1215 1157 1064 1204 1127 1191 1428 1272 1037 656 1499 1917 1728 1530 1246 1575
1106 1110 1485 1859 1962 1768 1460 1158 1481 1552 1201 1273 1553 1623 1346 1268 1276 1265 1132 998 916 849 777 793 948 1160 1236 1242 1192 1289 1226 1180 1336 1114 1446 1586 1279 646 1194 1874 1722 1782 1601
1037 1117 1998 1853 1811 1702 1526 1369 1538 1178 1087 894 1020 1399 1222 1051 970 859 746 618 519 721 1083 1125 1275 1064 1528 1532 1688 1443 1611 1393 1386 1024 1336 1575 1634 1485 1229 1382 1882 1995 1873
880 716 1015 1815 1522 1304 1484 1469 1660 885 1032 782 836 949 983 905 898 792 646 864 1001 931 932 1287 1678 1705 1464 1479 1608 1872 2105 1435 1494 1502 1486 1697 1597 1787 1704 1681 1791 2209 2119
620 945 1420 1637 1411 1263 1500 1695 1329 1114 1186 745 767 785 863 841 835 1066 1338 1378 882 553 442 273 791 889 998 1686 1866 2363 1935 1665 1107 1615 1532 1224 867 527 1041 1572 2002 1854 2114
1021 813 972 1056 825 863 1537 1523 1356 1324 1489 1158 1168 952 844 1145 1558 1435 1615 1797 1321 1158 705 344 775 1178 1157 1463 1610 1585 761 828 937 1557 1374 920 395 271 612 1927 2469 2135 2146
535 525 853 1341 1061 506 315 1295 1563 1245 991 975 778 871 1273 1188 562 456 780 1178 1526 1216 983 821 1105 827 1137 988 1028 1684 1711 1620 1396 981 1047 862 57 458 995 1687 2478 2757 2723
601 714 894 1195 1440 731 897 1208 1260 870 716 632 773 1221 764 452 204 261 835 1302 1084 1006 766 877 847 677 698 356 343 566 556 791 1139 1368 1303 727 650 744 750 960 1909 3080 2564
426 626 381 717 859 727 438 1380 1238 1038 655 744 944 1049 686 223 68 111 400 381 593 266 75 48 42 84 124 395 435 334 462 464 870 1374 1468 882 946 1119 1104 1113 1858 2866 2907
297 521 380 409 813 500 399 497 469 446 552 823 1051 1162 1047 1069 798 496 447 236 72 1 59 267 370 208 414 769 1077 1211 1203 707 581 806 928 950 1089 1260 1581 1615 1788 2250 2648
182 246 197 389 527 466 175 125 129 243 429 588 947 1255 1437 1380 1217 1307 1034 984 802 512 1087 1099 1061 905 999 1261 1476 1366 1523 1560 1429 1027 931 859 1132 1429 1719 2193 2331 2408 2239
0 47 89 152 186 190 398 406 244 223 414 811 1034 1381 1603 1383 1342 1514 1568 1136 1085 1190 1518 1507 1265 1357 1677 1628 1720 1781 1793 1759 1633 1490 1706 1226 1249 1518 1806 2164 1717 1220 1505
8 0 21 13 0 114 617 1132 882 940 1056 1104 1080 1072 1509 1520 1106 1243 1880 1491 1846 1896 1810 1668 1490 1482 1919 1809 1754 1803 1841 1786 1289 1186 729 586 1043 1915 2100 1993 1840 1744 2001
171 54 71 0 50 346 858 1016 967 838 593 1068 1176 1391 1467 1661 1057 1576 2067 1971 2096 2327 2290 1736 1612 1658 1893 1833 1969 1411 1542 1201 868 713 549 498 603 922 1345 1345 1428 1492 1744
216 363 246 33 118 329 701 906 1050 984 1088 1229 1294 1296 1359 1363 945 1300 2833 2135 2325 2439 1930 1099 1490 1726 1995 2193 2227 1331 1249 1062 967 716 578 501 927 1024 1036 1218 1186 1794 1588
601 542 523 428 331 321 601 843 1331 1672 1542 1373 1269 1332 1696 1506 1577 2029 2144 2222 2313 2498 1310 1157 1769 1699 2058 2086 1980 1404 1241 1006 837 638 654 920 859 681 781 873 1015 1180 1091
723 607 556 552 560 536 745 959 1043 1216 1366 1244 1098 862 1085 1469 1824 2051 2049 2303 2499 2282 2049 2312 2385 2288 2037 2313 1962 1328 1156 633 912 784 699 794 530 272 352 425 442 890 820
662 599 596 631 744 638 785 912 969 784 1010 1001 932 1366 1922 1955 1806 2103 2180 2161 2594 2599 2770 2500 2155 2328 2071 2626 2187 1587 1321 1051 601 554 678 774 267 11 4 15 8 7 0
470 549 597 669 848 719 810 825 767 886 834 1109 1653 1866 1850 1609 1883 2066 2349 2191 2158 1988 2699 2843 2578 2623 2348 2574 2241 1558 1143 942 331 316 429 394 81 2 7 9 0 0 1
274 481 545 655 751 727 678 654 739 972 1137 1037 1198 1653 1930 1841 1848 2142 2160 2186 2143 2061 1869 2742 2686 2014 2422 2355 2113 1893 755 230 876 204 264 141 159 20 11 5 6 0 0
172 304 480 610 655 563 584 541 819 451 404 643 1420 1830 2117 1770 1889 2006 2201 2247 2107 1819 2288 2484 2991 2707 2667 2586 1950 1630 1294 1219 110 302 99 198 92 41 1 5 0 0 0
102 157 330 553 605 435 392 504 589 724 623 924 1294 2276 2450 1975 1715 1666 2252 2205 2291 1863 2289 2886 2753 2691 2358 2187 1470 1595 1474 337 285 208 0 74 3 0 0 0 0 0 0
126 119 186 480 695 508 251 430 592 779 967 974 1476 1802 1565 1923 1619 2375 2231 2135 2268 2376 2710 2858 2573 2350 2056 1037 443 491 272 119 21 0 0 54 20 0 0 0 0 0 0

GFSSE_con_mucape_234.txt.gz
CAPE
1185 1424 1834 1734 1421 1628 1575 1713 1739 1735 1722 1805 1712 1552 1525 1435 1435 1440 1617 1666 1592 1843 1812 1275 1249 1182 1159 1273 1191 915 1789 1612 1061 1376 1643 1811 1649 1823 1710 1852 1716 1385 2017
944 1349 1999 1805 1586 1691 1761 1966 1794 1773 1760 1395 1607 1648 1623 1528 1358 1579 1706 1644 1283 1447 1545 922 1196 1265 1038 1052 1141 1217 991 1287 1694 1353 1163 1169 1822 1676 1548 1985 1562 1655 1961
817 1185 1237 1539 1762 1783 1608 1861 1860 1720 1447 1571 1523 1445 1273 1358 1519 1418 1351 1345 1212 1217 1199 1276 1087 1190 1309 1208 987 967 1124 1179 1175 1366 1711 1869 818 2067 1654 1467 1459 1803 1729
826 809 1000 1474 1616 1709 1569 1794 1712 1622 1627 1624 1597 1690 1368 1439 1265 1253 1258 1276 1266 1216 1180 1132 1195 1253 1231 1218 1168 1017 1084 1008 1164 1369 961 827 648 1651 1914 1742 1480 1228 1936
902 1026 1624 1667 1730 1615 1429 1504 1710 1417 1474 1605 1726 1504 1486 1468 1401 1257 1112 981 910 830 761 804 984 1262 1286 1318 1295 1305 1289 1116 1265 1173 1435 1424 1384 1461 1804 2016 1809 1586 1539
566 746 1434 1746 1639 1638 1245 1588 1713 1194 908 1171 1575 1445 1105 1011 900 765 621 487 504 902 1238 1267 1661 1504 1594 1747 1597 1771 1436 1461 1315 1198 1415 1565 1388 1563 1096 1299 1804 1826 1675
398 672 1430 1774 1489 1491 1697 1731 1103 1178 799 870 986 1010 827 750 745 704 830 1136 1008 947 608 552 985 1409 1243 1461 1843 2305 2012 1596 1519 1440 1464 1655 1670 2391 1956 1818 1727 1897 2073
207 242 518 1674 1348 1258 1244 1695 1026 968 815 791 841 807 764 807 1195 1658 1708 1832 1198 522 618 643 902 822 1065 1319 1755 1826 1941 1779 1416 1518 1670 1652 1487 1608 1908 1995 1987 2029 1938
272 505 498 411 735 1241 1670 1372 1114 1606 1188 1213 1016 774 1218 1705 1248 1034 838 1786 1518 1211 740 273 958 1191 1342 1435 1328 1718 1342 863 1128 1108 1570 1589 1804 869 936 1326 1564 2576 2547
294 302 406 324 282 270 521 1226 1541 1156 987 908 671 1144 1308 966 223 185 1079 1438 1283 1227 932 990 1000 775 937 688 1037 1661 1761 2009 1971 1423 1480 1152 518 526 968 1072 1750 2970 3108
269 316 516 512 510 477 551 950 912 698 738 582 889 1091 1007 182 246 643 890 1472 1274 637 675 628 566 666 785 1163 873 755 801 1180 1180 1586 1372 1671 848 875 794 1296 1839 3029 3302
182 146 419 361 263 221 177 569 716 731 1006 1062 1189 1511 959 1281 846 356 440 252 371 292 429 290 299 317 601 793 959 1092 1110 867 1007 1443 1728 1402 1234 1387 1525 1543 1524 2145 2666
112 132 133 306 329 84 126 273 537 639 615 1239 1670 2010 1945 1981 1821 1353 1223 1173 1305 619 1279 1212 1236 1043 1376 1755 1580 1455 1630 1498 684 1050 1208 1079 1149 1361 1660 1959 1974 2003 2142
0 46 54 147 446 129 91 189 341 441 605 835 1657 1990 1904 1496 1753 2149 2071 1996 2007 1706 2156 1790 1418 1786 1738 1709 1757 1655 1557 1714 1664 1494 1857 1264 1269 1503 1754 1992 2471 2410 2261
0 0 0 88 275 192 299 351 489 521 583 1062 1095 1598 1764 1734 2017 2038 2474 2225 2308 2107 1849 1953 1745 1949 1951 1389 1519 1634 1815 1933 1818 1629 1910 1160 1769 1724 1800 2116 2228 1478 1572
0 0 0 0 72 173 669 1387 1071 1038 1020 950 995 1332 1839 1927 2207 1749 2138 2139 1934 2318 2968 2126 2477 2174 2030 1731 1973 1754 1968 1652 1542 1442 1200 1328 1042 1228 1241 1250 1339 1400 1519
0 0 0 0 0 586 1298 1531 1204 837 629 936 1087 1594 1892 2067 2240 2412 1964 1850 1713 2082 1951 1762 2031 1821 1633 1919 1890 1623 1672 1699 1456 1405 1109 1038 1479 1025 858 846 1198 912 950
1 0 0 0 329 1045 1400 1390 1091 762 925 1052 1231 1449 2005 2228 2371 2311 2074 1785 1691 2031 1743 1774 1948 1957 1801 2020 2044 1852 1648 1515 1399 1146 1095 1054 845 929 511 618 900 765 600
219 182 327 327 590 901 1330 1215 1518 1802 1413 1249 1254 1254 1694 2084 2292 2700 1768 2004 2610 2259 2171 2070 1822 2069 2169 2189 1709 1708 1700 1562 1305 962 943 986 857 665 424 582 470 368 391
733 385 409 645 792 1087 1054 1599 1286 1225 1163 1102 1169 1049 1807 1990 2339 2457 1985 2516 2932 2192 1942 2337 3039 2688 2381 2350 1520 1451 1664 1602 1276 932 830 529 397 256 109 162 210 40 0
1043 934 693 712 985 1169 1075 954 870 746 728 758 1010 1482 2062 2078 2030 2651 2063 2103 2327 2182 2969 2540 2462 2263 2099 2128 1817 911 1785 1066 790 361 285 225 181 35 18 6 5 0 1
1174 1418 1271 1044 1302 1494 962 960 799 674 549 712 1061 1504 1892 1950 1935 2157 2774 2377 2557 2563 2427 2810 2733 2342 2234 2205 2226 1001 434 1302 878 425 206 148 117 15 2 0 0 0 0
1050 1542 1648 1617 1365 1532 1032 1167 1277 1135 1125 810 731 912 1406 2072 2123 2462 2803 2939 3163 2893 1971 2909 2522 2464 2302 2096 2459 1440 8 0 35 634 387 201 174 99 30 0 0 0 0
863 1087 1648 1914 1703 1598 1593 1015 1083 408 199 85 681 1003 1755 2164 2080 2192 2739 2986 3301 2673 2866 2505 2446 2827 2933 1979 996 893 987 472 7 26 429 307 146 179 8 0 4 24 6
637 740 1168 1752 1937 1650 1666 1456 916 947 102 267 534 1687 2777 2533 2176 2210 2533 2690 2921 2353 3254 3094 2722 2946 2468 2062 523 51 235 44 24 0 0 17 77 16 5 0 0 4 15
553 621 755 1389 2133 1971 1670 1652 1352 608 525 432 715 1280 1275 1216 1526 2775 2582 2669 3242 3471 3264 2961 2870 3054 2264 1542 441 48 0 0 0 0 0 0 0 15 8 2 0 0 9

GFSSE_con_mucape_240.txt.gz
CAPE
1019 1231 2107 1371 1582 1170 1538 1689 1668 1756 1651 1533 1402 1456 1469 1385 1451 1603 1497 1736 1587 1609 1063 1218 1189 933 934 1015 961 900 1532 1138 1137 1390 1506 1718 1698 1628 1981 1806 1623 1385 2213
769 799 2192 1478 1679 1513 1663 1618 1516 1652 1610 1553 1468 1545 1326 1359 1564 1669 1579 1402 1133 1571 799 1058 1146 1181 1008 780 743 888 599 1270 1262 955 1151 1519 1452 1404 1734 1734 1709 1910 2194
374 740 996 1993 1613 1843 1755 1748 1606 1476 1579 1255 1187 1217 1540 1418 1245 1095 1084 973 897 985 855 962 1036 1089 990 866 773 641 721 623 1003 1522 1383 1690 1230 1394 1804 1473 1401 1935 1771
204 236 646 2031 1644 1450 1660 1529 1245 1553 1455 1544 1488 1575 1253 1231 1270 1250 1116 1074 1028 971 1011 1023 1008 1035 1145 1166 1281 1115 1024 927 872 1010 1041 1348 916 1546 1680 1563 1084 1752 1726
192 488 1118 1727 1539 1343 1321 1550 1635 1514 1548 1520 1456 1396 1345 1207 1048 864 725 638 556 531 777 1162 1352 1716 1420 1460 1514 1500 1482 1308 1183 1069 964 1489 1278 1850 1981 1736 1475 1234 1739
319 694 1480 1626 1594 1024 1136 1357 1101 1235 1371 1645 1104 937 750 614 544 484 436 656 1053 1131 1026 755 1145 1548 1554 1540 1632 1609 1780 1837 1450 1168 1130 1191 1708 1997 2004 2003 1791 1724 1677
749 628 1232 1988 1288 1152 1293 913 842 828 966 906 745 543 466 437 673 1126 1464 1551 1146 844 529 646 532 938 1298 1232 1588 1813 2074 2290 1698 1301 1781 2001 1740 2633 2710 2527 2518 2691 2717
461 625 1230 1790 1471 1413 1099 695 643 579 635 615 554 512 731 1236 1651 1635 1399 1538 1295 882 522 746 876 1019 1351 1516 1637 1758 1999 2075 1439 1356 1450 1571 2296 2727 3092 2888 2728 2814 3067
111 417 601 609 1043 1665 1009 632 1088 655 786 699 564 916 1297 1513 1049 584 862 1409 1093 915 728 566 782 1183 1027 1245 1373 1458 2003 1809 1533 1229 1420 1359 2882 2856 3020 2869 2974 2915 2911
117 124 238 454 988 1021 499 1168 1466 904 749 634 808 1216 1373 1542 875 753 1568 1390 1183 1315 1073 1074 1245 1579 1510 1683 1872 1908 2151 2074 1592 927 1449 1858 3080 3146 1766 1892 2327 2685 2933
173 103 135 428 1053 1342 967 735 1004 705 704 1032 1202 1469 1859 1650 1446 1316 1849 1625 1423 1266 919 1124 1480 1885 2059 1864 2217 2579 2436 1206 727 1473 1666 2493 2226 1492 1040 1080 1622 2188 2435
25 61 121 166 291 529 0 592 636 627 1149 1754 2103 3103 1342 2391 1361 1714 1323 2254 2078 1915 1459 1927 2247 2511 2467 1615 1695 2659 2159 1560 1350 1810 1800 2302 1696 1653 1654 1495 1498 1870 1857
22 94 133 175 688 236 441 1457 1226 1547 1499 2532 2966 2798 312 1026 353 878 2015 1818 1857 1997 1888 2316 2011 2130 1654 1027 1820 1385 1348 1471 1514 1422 1720 2264 1894 1857 1796 1781 1959 2162 2054
24 10 69 158 1288 783 953 655 1737 1440 440 1936 3112 3550 950 1813 1789 2386 1970 2774 2249 909 2386 2578 2215 2640 1358 1609 2105 1963 1330 1683 1898 1304 1990 2357 2123 1921 1974 2082 2145 2139 1961
22 41 374 858 1224 1566 1801 2263 1448 1419 620 1959 2913 2929 3274 2862 3462 3340 1402 1955 3533 2360 2737 3345 2242 2993 2397 1721 1425 1491 1573 1573 1741 1640 1496 1691 2284 2052 1543 1417 1268 1271 1266
6 31 272 725 1257 1245 2370 2576 2562 2640 1795 1469 2343 2905 3070 3816 4199 1818 2982 2173 3081 2655 2863 1556 2212 2750 2953 1819 2606 1773 1955 1323 1410 1441 1290 1127 1711 1826 1078 786 845 863 872
0 0 74 431 480 1533 2687 2456 2520 2260 1210 1632 2576 3504 3109 3759 3791 4043 1974 1956 1990 2804 2629 1131 3328 2603 2165 2486 2090 2410 2377 1786 1570 1577 1166 891 755 744 624 356 385 327 231
0 197 49 0 276 1729 2805 2995 2831 1188 1819 2370 2693 3072 3014 3335 3197 3182 2591 3236 3421 2393 2958 2945 2621 2442 2306 1825 2005 2287 2023 1881 1928 1289 1177 642 253 199 318 295 263 225 121
151 527 268 406 563 1678 2668 2795 2662 2703 2453 1892 1357 3330 1797 1502 2027 2280 1747 3326 3847 2766 2995 2763 3156 3306 3009 2783 2024 2033 2460 2000 1921 435 412 437 143 185 168 190 54 33 18
176 458 779 618 2064 2389 2172 3310 2677 1968 2017 2362 3273 3175 3166 2276 3098 3339 1972 4045 3565 3864 3250 3992 4079 3299 3027 2997 1296 2002 2536 1863 961 885 665 117 121 314 103 50 15 19 16
123 499 1416 1859 2874 2311 2604 1792 2437 1863 1754 2148 2599 3260 2389 2009 2051 3563 3221 4028 3701 2448 2897 3689 3702 3185 2422 3200 1833 1705 2517 1917 915 366 216 134 68 85 135 107 68 16 4
622 884 1714 2197 2743 2711 2390 2694 3135 3679 2083 3152 2338 3019 2272 1972 2709 3072 4403 4288 4184 3362 3501 4065 3878 3347 2844 2916 2081 1047 1220 2053 935 824 444 262 136 168 60 42 74 53 99
1157 1443 1787 2294 2681 2423 2686 2702 2783 3124 2895 2321 2130 2268 2432 2981 2236 3457 4118 4555 4651 3710 3236 4094 3786 3956 3010 2911 2569 1293 399 435 63 1117 946 519 156 289 109 36 50 45 45
1208 1769 2280 2573 2875 2688 3342 2722 2865 1611 1749 1859 2859 3557 3036 2091 1915 2897 3554 4299 4568 4130 4248 3830 3762 3841 3792 2222 966 716 1423 785 457 222 604 1271 722 250 359 34 46 68 31
692 1115 2596 2812 3383 3295 3094 3476 3107 2485 1983 1593 1810 3940 3306 3533 2424 2752 4062 3726 4217 3977 4469 4253 3978 3809 3147 1970 1061 618 636 373 1172 27 0 0 747 266 135 104 18 71 33
534 848 1622 3302 3640 3455 3415 3253 3776 3441 1881 2652 2921 3051 2334 2505 3146 3405 3080 3655 4392 4579 4082 4149 4094 3559 3517 2019 1015 578 1 0 0 0 0 0 0 82 166 45 40 51 41

GFSSE_con_mucape_246.txt.gz
CAPE
1043 1594 2203 1352 1521 1695 1866 1697 1709 1679 1687 1576 1663 1663 1708 1718 1657 1876 1674 1636 1418 1449 1401 1265 1215 1252 1219 1064 1164 817 738 1594 1659 1077 1445 1538 1638 1491 1893 1744 1647 1539 2436
1044 1433 2233 1877 2012 1640 1828 1866 1707 1655 1673 1517 1436 1572 1702 1631 1678 1618 1316 1622 1005 1117 1334 1404 1338 1114 1047 1203 773 1552 1447 1185 724 1534 1946 1445 1172 1706 2009 1838 1960 1971 2404
1072 1397 1933 2131 1722 1789 1747 1363 1322 1191 1456 1509 1867 1714 1640 1466 1237 1102 919 1065 1144 783 1062 1235 1329 1304 1228 1122 1107 923 968 1514 1356 1526 1393 1158 960 1910 1749 1938 2271 2124 2194
846 1200 1595 2322 1945 1477 1100 1641 1432 1508 1614 1384 1085 1061 982 1035 986 954 958 929 916 974 991 969 992 1109 1265 1347 1475 1201 1013 757 1296 1769 1194 1215 940 1578 1786 1901 2149 2110 2189
683 1104 1110 1680 1629 1306 1637 1552 1713 1686 1315 1544 1612 1587 1391 1105 962 809 709 594 518 549 885 1225 1350 1716 1545 1557 1659 1699 1626 1539 1174 954 821 865 882 823 1959 1980 2057 1951 2050
741 961 1583 1431 1372 1493 1709 1623 1521 1438 1314 1155 1000 855 710 625 566 480 558 922 1255 1185 1164 827 889 1389 1703 1712 1706 1841 1812 1961 1863 1178 954 720 851 1033 1821 1837 1541 1992 1979
815 1187 1142 1670 1392 1343 1244 1356 1374 1543 1205 921 699 577 493 456 648 1134 1547 1677 1448 1058 863 827 805 939 1231 1548 1577 1792 2058 2149 1804 1238 1103 1024 812 1742 1979 2211 2282 2023 2128
871 1143 893 1133 1308 1187 788 851 1160 1030 838 690 572 538 583 967 1442 1777 1702 1582 1539 1368 866 815 1075 1118 1285 1573 1798 1942 2151 2239 2022 1307 1213 1053 1111 2470 2600 2636 3135 2886 2465
795 857 713 902 987 617 874 535 735 699 631 613 708 727 1145 1477 1577 1332 1017 1588 1419 1288 1016 1081 928 1257 1652 1537 1500 1814 1864 2214 1891 1416 1167 847 1462 2231 2343 2606 2825 3268 3363
670 779 796 917 983 190 210 545 667 723 852 835 904 1088 1501 1700 1821 1334 1460 1627 1533 1421 1523 1463 1664 1990 2681 2965 2301 2049 2065 1999 1580 1338 1142 1119 1952 2284 2399 2608 2847 2593 2912
329 405 329 773 959 285 213 1133 1684 850 1029 1080 1077 1388 1978 991 891 1353 1284 2168 2565 1854 2198 2441 2534 3028 3085 2885 2573 2783 2414 1560 1268 1219 878 1790 2587 2117 2304 2151 2105 2739 2905
64 53 111 534 589 42 183 684 961 669 684 696 917 77 775 640 385 1168 1740 2259 2468 2965 3302 3330 3306 3134 2840 2101 1929 2036 2029 1085 1315 1518 1432 1399 1717 1406 1394 1253 1679 1853 2101
0 39 127 422 549 123 88 71 202 360 617 856 785 247 376 560 608 429 696 949 1147 1358 1434 1529 1467 1847 1896 1647 1183 1419 1246 1233 1206 1154 1170 1719 1411 1380 1192 1262 1347 1661 1771
0 0 163 337 444 90 135 209 260 446 599 1096 959 469 646 822 867 1013 859 1071 1354 1414 1337 1216 1136 1328 1313 1081 1139 1342 1239 1260 1190 1068 1468 2005 1980 1981 1533 1594 1601 1477 1165
0 0 107 167 167 23 141 309 380 551 732 1066 1335 1074 668 917 1254 1523 1434 1487 1427 1402 1571 1257 1311 1343 1255 1279 1297 1280 1362 1151 1011 1353 1251 1828 1811 1647 1129 1130 1077 1058 1337
0 0 0 10 86 94 835 441 574 499 345 590 1122 1384 1562 1668 1650 1830 1413 1498 1247 1368 1505 1710 1609 1602 1736 1407 1243 1363 1247 1076 1215 1242 1263 1284 1440 1576 769 326 274 309 354
0 0 22 13 28 344 537 679 389 907 693 737 1377 1604 1724 1482 1191 639 1295 1449 1582 1522 1766 1920 1663 1720 1751 1671 1435 1164 1149 1014 1023 936 1008 887 838 795 560 532 428 230 170
0 0 16 62 0 353 699 572 593 986 897 662 1069 1378 1508 1692 1098 777 1044 1601 1841 2029 1833 1549 1814 1878 2024 1774 1581 1209 1100 932 849 642 571 535 347 335 497 472 178 51 27
0 0 8 30 0 455 766 446 651 885 781 1074 1064 1419 1050 1058 1001 1204 1471 2083 2138 2003 1803 1768 1562 1869 2086 1833 1768 1390 916 1116 814 556 251 270 177 189 208 124 85 59 43
0 0 0 0 4 415 790 787 887 806 566 977 1419 1264 873 1196 1201 1634 2033 2196 1887 1781 1829 1791 1648 1495 1888 1278 1309 1424 875 1137 899 631 186 139 177 103 74 29 23 19 35
0 0 0 0 11 299 639 795 595 489 618 575 999 1321 1151 790 1510 1738 2148 2095 2188 1891 2146 2009 2044 1489 1300 655 222 332 1131 979 832 446 252 40 61 72 141 11 8 20 27
0 0 0 0 0 346 652 262 442 1168 847 1071 1154 1013 675 754 876 1763 1896 2208 2294 1963 2013 1980 2230 1621 960 80 87 86 973 467 105 199 269 69 88 64 85 122 38 26 39
0 0 0 0 50 344 757 492 746 849 730 1169 1120 897 881 1175 874 1841 1907 2100 2204 2316 2293 2091 1787 1147 337 73 3 72 9 186 0 53 14 40 102 125 61 69 48 43 24
0 0 0 138 190 274 677 535 563 529 607 576 446 532 496 1113 716 1761 1808 2134 2093 2098 2183 2140 1754 1291 413 3 3 1 17 19 24 4 49 8 1 62 113 26 39 36 52
0 0 0 485 310 212 292 654 772 351 214 350 306 1001 802 1249 853 1786 1757 2271 2173 2320 2086 1977 1717 1303 533 41 0 0 0 0 0 0 0 0 0 0 81 12 30 89 57
0 22 28 516 296 265 147 510 835 675 380 274 345 943 703 1099 1003 1711 1613 2169 2373 2515 2129 2132 1738 1000 626 322 55 0 0 0 0 0 0 0 0 0 135 56 47 85 69